Probability
29 23 6 10 0 0 0 0 0 0 0 0 0 0 0 0 0 0 0 3 6 26 45 68 84 90 87 87 81 74 81 74 77 74 77 81 77 77 71 71 61 65 61 65 61 61 61 61 65
19 10 3 0 0 0 0 0 0 0 0 0 0 0 3 6 3 3 3 10 16 39 42 71 81 81 87 87 81 81 77 77 74 74 77 81 77 77 77 77 71 65 61 58 58 52 52 55 55
16 13 0 0 0 0 0 0 0 0 0 0 0 3 3 6 3 3 6 10 23 35 45 61 84 81 84 84 87 84 81 84 74 77 81 77 74 74 74 77 71 61 55 55 45 35 35 42 42
13 3 0 0 0 0 0 0 0 0 0 0 0 3 3 3 6 0 10 23 23 26 48 61 84 81 87 87 87 84 81 81 77 77 81 81 81 77 74 74 71 65 58 48 42 35 32 45 52
0 0 0 0 0 0 0 0 0 0 0 0 0 0 0 0 0 13 16 16 19 26 45 58 77 81 84 87 84 87 81 81 77 77 81 81 77 77 77 71 71 65 61 52 52 45 48 48 48
0 0 0 0 0 0 0 0 0 0 0 0 0 0 0 0 6 13 10 10 16 23 42 55 71 74 77 84 81 84 84 81 81 77 77 77 81 81 81 71 65 61 61 58 52 45 42 45 52
0 0 0 0 0 0 0 0 0 0 0 0 0 0 0 0 3 6 6 10 16 23 29 45 45 55 74 77 77 84 81 77 81 84 77 77 77 77 74 65 58 58 61 58 45 45 42 48 55
0 0 0 0 0 0 0 0 0 0 0 0 0 0 0 0 6 6 3 3 10 13 23 23 29 32 39 52 77 77 90 87 84 81 77 81 77 74 81 65 68 61 52 42 42 48 48 48 48
0 0 0 0 0 0 0 0 0 3 0 0 3 0 0 0 6 3 3 3 6 13 13 13 19 23 29 39 55 52 61 68 61 55 74 55 29 26 45 52 55 52 48 39 48 52 48 39 42
0 0 0 0 0 0 0 0 3 3 0 0 0 0 0 3 6 3 3 3 3 3 6 13 10 10 19 29 23 29 39 35 32 29 26 19 13 19 35 55 58 52 42 45 48 52 42 32 23
0 0 0 0 0 0 0 0 3 0 0 0 0 0 0 3 3 0 3 3 0 3 6 6 10 13 13 10 13 13 19 16 13 16 13 6 6 6 13 10 13 19 29 23 29 32 23 19 13
0 0 0 0 0 0 0 0 0 0 0 0 0 0 0 3 6 3 0 0 3 3 6 6 6 3 3 6 3 6 13 10 10 13 10 6 6 3 3 3 3 6 10 6 3 6 6 3 3
0 0 0 0 0 0 0 0 0 3 0 0 0 0 0 3 10 6 0 0 3 3 3 3 10 6 6 3 3 10 3 10 10 10 6 3 3 3 3 3 3 3 3 3 3 3 3 3 3
0 0 0 0 0 0 0 0 0 3 0 0 0 0 3 3 6 3 0 3 3 3 3 3 6 3 3 3 3 6 10 13 10 6 6 6 6 3 3 3 3 3 3 3 3 3 3 3 3
0 0 0 0 0 3 3 3 0 3 0 0 0 0 3 3 0 0 0 3 3 3 3 3 3 3 6 10 10 6 6 6 6 6 6 6 6 6 3 3 3 3 3 3 3 3 3 3 3
0 0 0 0 0 0 0 0 0 3 0 0 0 0 0 0 0 0 0 3 3 3 3 3 13 6 6 6 10 6 3 13 13 10 13 13 16 13 10 10 6 6 6 6 10 6 6 3 3
0 0 0 0 0 0 0 0 0 3 0 0 0 0 0 0 0 0 0 3 3 3 3 3 6 10 10 10 6 6 16 16 16 6 6 6 16 13 10 6 6 13 13 6 6 6 3 3 3
0 0 0 0 0 0 0 0 0 3 3 3 3 3 3 0 0 3 3 3 3 3 3 3 6 6 10 6 6 6 10 10 6 10 16 16 19 19 16 16 10 6 10 10 6 6 3 3 3
0 0 0 0 0 0 0 0 0 0 0 0 0 3 3 3 6 3 3 3 3 3 3 3 6 6 3 13 13 10 13 13 16 16 19 16 13 23 13 13 10 10 10 6 6 3 6 3 3
0 0 0 0 0 0 0 0 0 0 0 0 0 0 3 0 3 6 13 6 3 3 6 6 6 6 6 6 6 13 13 13 13 16 16 16 16 13 19 10 13 6 6 6 6 6 3 3 3
0 0 0 0 0 0 0 0 0 0 0 0 0 0 0 0 3 13 10 6 6 3 6 6 6 3 3 6 13 16 16 16 19 16 16 16 16 19 19 16 10 6 6 6 6 6 3 6 3
0 0 0 0 0 0 0 0 0 0 0 3 3 3 3 0 3 13 13 13 6 3 3 3 6 10 6 13 16 16 16 23 16 13 13 16 16 16 19 19 13 6 6 6 6 6 3 3 3
0 0 0 0 0 0 0 0 0 0 0 0 3 3 3 3 6 13 13 10 10 6 3 6 10 10 13 16 19 16 23 16 16 13 16 13 10 13 19 19 13 13 13 13 10 10 3 3 0
0 0 0 0 0 0 0 0 0 0 0 0 0 3 3 6 10 13 13 13 10 3 6 6 13 6 10 16 19 16 19 10 19 19 16 16 13 6 16 19 16 16 16 16 16 6 10 3 0
0 0 0 0 0 0 0 0 0 0 0 0 0 0 3 3 10 16 16 13 10 3 3 6 10 10 13 23 23 13 16 16 23 26 23 23 23 19 16 19 16 16 16 23 16 13 10 10 6
0 0 0 0 0 0 0 0 0 0 0 0 0 0 3 3 10 13 16 13 13 3 3 10 10 13 16 23 32 26 23 26 26 26 19 23 26 23 23 19 16 19 19 16 16 23 16 13 6
0 0 0 0 0 0 0 0 0 0 0 3 3 3 3 6 10 10 13 10 10 3 3 13 13 16 19 29 32 29 23 29 29 29 32 32 29 29 26 26 23 23 19 19 16 23 23 13 10
0 0 0 0 0 0 0 0 0 0 0 0 6 6 6 6 10 13 16 16 16 13 13 10 13 23 26 26 29 32 23 32 39 39 32 35 32 32 26 29 26 19 23 19 13 19 16 16 19
0 0 0 0 0 0 0 0 0 3 3 3 3 6 6 10 6 10 13 16 16 23 19 16 23 26 29 35 35 32 32 32 32 35 32 35 39 32 29 29 23 23 26 19 13 13 16 16 19
0 0 0 0 0 0 0 0 3 10 3 6 6 10 6 6 6 13 16 16 19 19 19 19 32 35 39 32 32 32 32 32 26 29 32 32 32 32 32 26 23 26 26 19 13 13 10 13 13
Height
5884 5884 5883 5882 5882 5880 5878 5877 5876 5875 5874 5874 5873 5872 5872 5872 5873 5875 5872 5870 5870 5869 5869 5868 5868 5868 5868 5868 5868 5868 5868 5868 5868 5868 5869 5869 5869 5869 5870 5871 5872 5873 5874 5874 5875 5876 5877 5878 5879
5887 5886 5886 5885 5883 5881 5880 5879 5877 5876 5876 5875 5875 5874 5873 5873 5873 5873 5872 5872 5871 5871 5870 5870 5869 5869 5869 5869 5869 5869 5869 5869 5869 5869 5869 5870 5870 5870 5871 5872 5873 5874 5875 5875 5876 5877 5878 5879 5880
5889 5888 5889 5887 5884 5883 5882 5880 5879 5878 5878 5877 5876 5875 5875 5874 5874 5874 5873 5873 5873 5872 5871 5871 5870 5870 5870 5870 5870 5870 5870 5870 5870 5870 5870 5871 5871 5872 5872 5873 5873 5874 5875 5876 5877 5878 5879 5880 5880
5891 5891 5890 5889 5887 5885 5883 5882 5881 5880 5880 5879 5878 5877 5876 5876 5876 5875 5874 5874 5874 5873 5872 5872 5871 5871 5871 5871 5870 5871 5871 5871 5871 5871 5871 5872 5872 5873 5873 5873 5874 5875 5876 5877 5878 5879 5879 5881 5881
5893 5893 5892 5890 5888 5887 5885 5884 5883 5882 5881 5880 5880 5878 5878 5878 5877 5876 5875 5875 5875 5874 5874 5873 5873 5872 5872 5872 5872 5872 5872 5872 5872 5872 5872 5872 5873 5874 5874 5874 5875 5876 5877 5877 5878 5879 5880 5881 5882
5895 5894 5894 5892 5891 5889 5887 5886 5885 5884 5883 5882 5882 5881 5880 5879 5879 5878 5877 5877 5876 5876 5875 5874 5874 5874 5873 5873 5873 5873 5873 5873 5873 5873 5873 5874 5874 5875 5875 5875 5876 5876 5877 5878 5879 5880 5881 5882 5882
5897 5896 5895 5894 5892 5891 5890 5888 5886 5886 5885 5885 5884 5883 5882 5881 5880 5880 5879 5878 5878 5877 5876 5876 5875 5875 5875 5874 5874 5874 5874 5874 5874 5874 5874 5874 5875 5876 5876 5877 5877 5878 5878 5879 5880 5880 5881 5882 5883
5898 5898 5896 5895 5894 5893 5891 5890 5889 5888 5888 5887 5886 5885 5884 5884 5883 5882 5881 5880 5879 5878 5878 5877 5877 5877 5876 5876 5875 5875 5875 5875 5875 5875 5875 5876 5876 5876 5877 5877 5878 5879 5879 5880 5880 5881 5882 5882 5883
5899 5900 5897 5896 5895 5895 5893 5892 5891 5891 5890 5889 5888 5887 5886 5885 5885 5884 5883 5882 5881 5880 5880 5879 5879 5878 5877 5877 5876 5876 5876 5876 5876 5876 5876 5877 5877 5878 5878 5878 5879 5879 5880 5880 5881 5881 5882 5883 5883
5901 5900 5899 5898 5897 5896 5895 5895 5894 5893 5892 5891 5890 5889 5888 5887 5886 5886 5885 5884 5883 5882 5881 5881 5880 5880 5879 5879 5878 5878 5878 5877 5877 5877 5877 5878 5878 5878 5879 5879 5879 5880 5880 5880 5881 5882 5882 5883 5883
5902 5901 5900 5899 5898 5898 5897 5897 5896 5895 5895 5894 5893 5892 5891 5889 5888 5887 5886 5885 5884 5884 5883 5883 5882 5881 5881 5880 5880 5879 5879 5879 5879 5879 5878 5879 5879 5879 5879 5880 5880 5880 5881 5881 5881 5882 5883 5883 5883
5903 5902 5901 5901 5900 5899 5899 5899 5898 5898 5897 5896 5895 5894 5893 5892 5891 5889 5888 5887 5886 5886 5885 5884 5884 5883 5882 5882 5881 5881 5881 5881 5880 5880 5880 5880 5880 5880 5880 5880 5880 5881 5881 5881 5882 5882 5882 5883 5883
5904 5904 5903 5902 5902 5902 5901 5901 5900 5900 5899 5898 5897 5896 5895 5894 5892 5891 5891 5890 5889 5888 5887 5886 5886 5885 5884 5884 5883 5883 5882 5882 5882 5882 5881 5881 5881 5881 5881 5881 5881 5881 5881 5882 5882 5882 5882 5883 5883
5905 5905 5905 5904 5904 5903 5903 5903 5903 5902 5901 5900 5899 5898 5897 5896 5895 5894 5893 5892 5891 5890 5889 5888 5888 5887 5886 5885 5885 5885 5884 5883 5883 5883 5883 5882 5882 5882 5881 5881 5881 5882 5882 5882 5882 5882 5882 5882 5883
5906 5906 5906 5905 5905 5904 5905 5905 5904 5904 5903 5902 5901 5901 5899 5898 5897 5896 5895 5894 5893 5892 5891 5891 5890 5889 5888 5887 5887 5886 5886 5885 5885 5884 5884 5883 5882 5882 5882 5882 5882 5882 5882 5882 5882 5882 5882 5882 5882
5906 5907 5907 5907 5906 5906 5908 5907 5906 5905 5905 5904 5903 5903 5902 5900 5899 5898 5896 5895 5895 5894 5893 5893 5892 5891 5890 5889 5889 5888 5887 5887 5886 5886 5885 5884 5883 5883 5883 5882 5882 5882 5882 5882 5882 5882 5882 5882 5882
5906 5907 5907 5908 5907 5907 5908 5907 5907 5907 5906 5905 5905 5904 5903 5902 5901 5899 5898 5897 5896 5896 5895 5894 5893 5892 5892 5891 5890 5889 5889 5888 5888 5887 5886 5885 5885 5884 5883 5883 5883 5883 5883 5882 5882 5882 5882 5881 5881
5906 5907 5908 5908 5908 5908 5908 5908 5908 5908 5907 5907 5906 5905 5904 5903 5902 5901 5899 5898 5898 5897 5897 5896 5895 5894 5893 5893 5892 5891 5890 5889 5889 5888 5887 5886 5885 5885 5884 5883 5883 5883 5883 5882 5882 5882 5881 5881 5881
5906 5907 5908 5908 5908 5908 5908 5909 5909 5909 5909 5908 5907 5906 5905 5904 5903 5902 5901 5900 5899 5898 5898 5897 5897 5896 5895 5894 5893 5892 5891 5890 5890 5889 5888 5887 5886 5885 5885 5884 5883 5883 5882 5882 5882 5881 5881 5881 5880
5905 5906 5908 5908 5909 5909 5909 5909 5909 5909 5909 5909 5908 5907 5906 5905 5904 5904 5903 5902 5901 5900 5899 5899 5898 5897 5896 5895 5894 5894 5893 5892 5891 5890 5889 5888 5887 5886 5885 5885 5884 5883 5882 5882 5881 5881 5880 5880 5879
5903 5906 5907 5908 5908 5908 5909 5909 5910 5910 5909 5909 5909 5908 5907 5906 5905 5905 5904 5903 5902 5901 5900 5900 5899 5898 5898 5897 5896 5895 5894 5893 5892 5891 5890 5889 5888 5887 5886 5885 5884 5883 5882 5881 5881 5880 5880 5879 5878
5902 5904 5906 5907 5907 5908 5909 5909 5910 5909 5909 5909 5909 5908 5908 5907 5906 5906 5905 5904 5903 5902 5901 5900 5900 5899 5898 5897 5897 5896 5895 5894 5893 5892 5891 5890 5889 5888 5886 5885 5884 5883 5882 5881 5880 5879 5879 5878 5877
5900 5902 5903 5905 5906 5907 5907 5908 5910 5909 5909 5909 5909 5909 5908 5907 5907 5906 5905 5905 5904 5903 5902 5901 5900 5900 5899 5898 5897 5897 5896 5895 5894 5893 5892 5890 5889 5888 5887 5885 5884 5883 5882 5881 5880 5879 5878 5877 5876
5897 5900 5901 5902 5903 5905 5906 5907 5908 5909 5909 5909 5909 5908 5908 5908 5907 5906 5906 5905 5904 5903 5902 5902 5901 5900 5899 5899 5898 5897 5896 5895 5895 5893 5892 5891 5890 5888 5887 5886 5884 5883 5882 5881 5879 5878 5877 5876 5875
5893 5896 5898 5899 5900 5902 5904 5905 5907 5908 5908 5908 5908 5908 5908 5907 5907 5906 5906 5905 5904 5903 5903 5902 5901 5901 5900 5899 5898 5897 5897 5896 5895 5894 5893 5891 5890 5888 5887 5885 5884 5883 5882 5880 5879 5877 5876 5874 5873
5890 5893 5895 5897 5898 5900 5901 5903 5906 5906 5906 5907 5907 5907 5907 5907 5906 5906 5905 5904 5904 5903 5903 5902 5902 5901 5900 5899 5898 5898 5897 5896 5895 5894 5892 5891 5890 5888 5887 5885 5884 5882 5881 5879 5878 5876 5875 5873 5872
5886 5888 5892 5894 5895 5897 5898 5901 5903 5904 5905 5905 5906 5905 5905 5905 5905 5905 5904 5904 5903 5903 5902 5902 5902 5901 5900 5899 5898 5897 5896 5895 5894 5893 5892 5890 5889 5888 5886 5884 5883 5881 5880 5878 5877 5875 5873 5871 5870
5882 5885 5887 5889 5891 5893 5896 5898 5900 5901 5902 5903 5903 5904 5904 5904 5903 5903 5903 5902 5902 5902 5901 5901 5901 5900 5899 5898 5897 5896 5894 5894 5893 5892 5891 5889 5888 5887 5885 5883 5882 5880 5878 5877 5875 5874 5872 5870 5868
5877 5880 5882 5885 5887 5890 5892 5897 5898 5899 5900 5901 5901 5902 5902 5902 5902 5901 5901 5901 5900 5900 5900 5900 5899 5899 5898 5897 5896 5894 5893 5892 5892 5891 5889 5888 5886 5885 5883 5882 5880 5878 5877 5875 5873 5872 5870 5868 5866
5871 5875 5878 5881 5883 5886 5888 5894 5894 5896 5896 5898 5898 5899 5899 5899 5899 5899 5899 5899 5898 5898 5898 5897 5897 5897 5896 5895 5894 5893 5892 5891 5890 5889 5888 5886 5885 5883 5881 5880 5878 5876 5875 5873 5871 5869 5867 5865 5863
Wind_Speed
13 14 15 14 14 15 14 14 15 14 14 13 13 13 13 12 12 10 10 10 9 8 9 9 8 8 8 8 8 8 8 8 8 8 7 7 7 6 6 6 7 7 7 6 6 7 7 7 6
13 14 14 14 14 14 14 14 15 14 14 13 12 13 12 11 11 10 9 9 8 8 8 8 8 8 8 8 8 8 8 8 8 7 7 6 7 7 6 6 7 7 7 6 7 6 6 6 6
13 14 14 14 14 14 15 15 15 14 13 12 12 12 11 11 10 9 9 8 7 8 8 8 8 8 8 8 8 8 8 7 7 7 7 6 6 6 6 5 6 6 6 6 6 6 6 5 6
13 14 13 14 14 16 16 15 15 14 13 12 12 12 11 10 9 9 9 8 8 8 8 8 8 8 8 8 8 7 7 7 7 6 6 7 6 6 6 6 6 6 6 5 5 6 6 6 6
13 13 13 13 14 15 16 15 15 14 13 13 13 12 11 10 10 10 9 9 8 8 8 8 8 8 8 8 7 7 7 6 6 7 7 7 7 7 6 6 6 6 5 5 5 6 6 6 5
12 12 12 13 13 14 15 15 15 15 13 13 13 13 12 11 11 10 10 9 9 9 9 8 8 9 9 8 8 7 7 7 6 6 7 7 7 7 6 6 6 5 5 5 6 6 6 5 5
11 11 12 13 14 14 14 14 15 14 13 13 13 13 13 12 11 11 11 10 10 10 9 9 9 9 8 8 8 7 7 7 7 6 6 7 6 5 5 5 5 5 4 4 5 6 5 5 4
10 10 11 13 14 14 13 14 14 14 14 13 13 13 13 12 11 11 11 10 10 10 10 10 10 9 8 8 8 8 7 7 7 7 6 6 5 5 5 5 4 4 4 4 5 5 5 4 3
8 9 10 12 14 14 14 14 13 14 14 13 13 13 12 12 11 11 11 11 11 11 11 11 10 10 9 9 8 8 8 7 7 7 6 5 5 5 4 4 4 3 3 3 4 4 4 4 3
6 8 10 12 12 13 13 13 13 14 14 14 14 14 13 12 11 11 11 11 11 11 11 11 11 10 10 10 9 8 8 8 7 7 6 6 5 5 4 3 3 3 3 3 3 3 3 3 3
5 7 10 11 12 12 12 13 13 14 14 14 14 14 14 13 13 12 12 11 11 11 11 11 10 11 10 10 9 9 9 8 8 8 7 6 5 5 4 3 2 1 2 2 2 2 2 2 2
5 7 9 10 11 12 12 13 13 13 13 13 14 14 14 14 14 13 13 13 12 12 12 12 11 11 11 10 10 10 10 9 8 8 8 7 6 5 4 3 2 1 1 1 2 1 1 1 1
3 5 8 9 10 11 11 12 12 12 12 13 13 13 14 14 14 13 13 13 12 12 12 12 12 11 12 11 10 10 10 9 8 8 7 7 6 5 4 3 3 2 1 1 0 0 1 2 2
3 3 6 8 9 10 11 11 11 11 11 12 13 12 12 13 13 13 13 12 12 12 12 12 12 11 11 10 10 10 10 10 9 8 7 6 5 5 4 3 3 2 2 1 1 1 1 2 2
3 4 6 7 8 9 9 10 11 11 10 11 11 12 12 12 12 12 12 12 12 12 12 12 12 11 11 10 10 9 10 9 9 8 7 7 6 6 5 3 3 3 2 1 1 1 1 2 2
3 3 4 5 7 8 8 8 9 9 9 10 10 11 11 12 12 12 11 11 11 11 11 11 11 11 11 10 10 9 9 9 9 8 8 7 7 7 5 4 3 2 2 2 2 2 2 2 2
4 3 3 4 5 6 7 7 7 8 8 9 10 10 10 11 11 11 11 10 10 10 10 10 11 11 10 10 10 10 10 9 9 9 8 8 7 7 6 4 3 3 3 2 2 2 3 3 3
5 4 4 4 4 4 5 6 6 7 7 8 9 9 10 11 11 11 11 10 10 9 9 10 10 10 10 10 10 10 9 9 9 9 8 7 7 7 6 5 4 3 3 3 3 3 4 3 4
7 6 4 4 3 2 3 3 4 4 6 7 8 8 9 10 10 10 10 10 10 10 9 9 10 10 10 10 10 9 8 8 8 9 8 8 8 7 6 5 6 5 4 4 4 4 4 4 5
10 8 6 5 4 3 2 2 2 2 4 6 7 7 8 8 9 9 9 9 9 9 9 9 9 9 9 9 9 9 8 8 8 8 8 8 8 7 6 6 7 6 5 4 4 4 5 5 5
12 9 8 7 7 6 4 2 1 2 3 4 6 6 6 6 7 7 7 8 8 9 8 8 9 8 8 8 8 8 8 8 7 7 8 8 8 7 7 7 7 7 6 5 5 5 5 6 6
14 12 10 10 10 8 7 5 2 1 1 3 4 5 6 5 5 6 6 6 7 7 7 7 7 8 8 8 8 8 8 8 8 8 8 8 8 8 8 8 8 8 7 6 6 6 7 7 7
15 14 13 12 11 10 9 7 4 2 1 2 3 4 4 4 4 4 5 5 5 6 6 6 7 8 8 8 8 8 8 9 9 9 9 9 9 8 8 8 8 8 8 7 7 8 8 8 8
18 18 17 15 14 13 10 9 6 4 2 3 3 3 3 3 3 3 4 3 4 4 4 5 6 7 7 7 7 7 7 8 8 9 9 9 9 9 9 8 8 8 8 8 8 8 8 8 8
22 21 20 19 17 15 13 11 7 5 4 4 3 3 3 3 3 3 3 3 4 4 4 5 5 6 7 7 7 6 6 7 8 8 9 9 9 9 9 9 9 9 9 9 9 9 9 9 9
24 23 22 20 19 17 16 13 9 8 6 6 5 6 6 5 4 3 4 4 4 4 3 4 5 5 5 6 6 6 6 7 8 8 9 9 9 9 10 10 10 10 11 11 11 10 10 10 10
26 25 23 22 21 20 17 15 13 11 9 9 8 7 7 7 6 6 4 4 4 4 4 4 4 4 5 5 6 6 7 8 7 8 9 10 11 11 11 11 11 11 11 11 12 12 11 11 12
28 26 26 25 24 22 19 17 15 14 11 11 9 8 8 8 8 7 6 6 5 5 5 5 5 4 4 5 6 8 8 9 9 9 10 11 11 11 11 12 12 12 12 12 13 13 13 13 13
29 28 27 27 26 23 22 18 16 14 12 11 11 11 11 10 9 9 8 7 6 7 6 6 6 5 5 6 7 8 9 9 9 10 11 12 12 13 13 13 13 13 13 13 14 14 14 14 14
30 29 28 27 26 24 23 20 17 16 14 13 12 13 12 12 11 10 10 8 7 7 7 7 7 7 7 8 9 9 9 10 10 11 12 13 14 14 14 14 14 14 14 14 15 15 16 16 16
Wind_Direction
64 60 57 61 58 57 60 63 62 60 59 62 64 63 61 61 62 60 58 58 56 58 62 67 73 75 80 80 80 78 74 71 67 68 78 77 81 91 96 107 116 115 113 115 125 129 135 135 139
64 61 61 62 60 61 61 60 61 57 57 59 63 62 57 59 62 63 61 58 57 58 62 68 72 74 79 79 78 77 75 74 71 73 82 85 86 91 99 108 117 118 117 116 123 126 132 135 138
61 61 63 61 61 62 61 61 61 58 57 58 59 59 55 56 62 62 62 60 59 62 65 67 69 71 75 75 77 76 75 74 75 78 85 89 89 89 96 103 115 122 119 121 128 130 134 139 139
63 64 63 62 61 61 60 62 61 59 58 57 57 59 57 54 59 61 66 65 66 69 69 71 72 70 71 73 74 75 73 74 75 80 85 90 89 93 98 108 117 119 115 122 131 134 137 138 138
65 65 63 62 59 60 61 60 60 58 57 58 59 63 60 59 58 61 67 67 68 67 67 70 71 70 71 74 71 69 71 75 74 75 81 88 92 96 98 107 116 115 114 119 125 132 136 140 141
66 61 59 60 58 59 59 60 59 58 59 59 60 64 60 58 58 63 65 65 64 64 65 67 68 68 68 70 66 63 65 69 70 74 77 87 95 100 98 102 108 112 118 127 132 134 138 145 146
61 59 60 56 55 56 57 59 59 57 58 60 61 64 61 58 59 62 61 61 61 60 60 65 67 63 64 67 64 65 66 68 71 78 83 89 96 103 104 107 112 119 124 134 138 141 142 145 149
56 54 58 53 53 55 60 63 60 58 59 60 59 60 60 60 60 59 58 58 59 61 64 67 64 59 59 62 63 63 67 69 73 77 84 88 94 101 104 109 118 122 131 138 143 149 153 154 155
59 53 54 53 56 58 62 65 63 60 61 60 57 56 57 58 57 57 56 58 58 62 64 62 59 54 54 57 62 61 63 68 73 76 78 84 91 100 104 111 118 118 128 147 151 152 158 161 162
65 52 49 55 63 63 64 64 65 64 64 62 58 56 55 55 55 54 55 56 58 61 62 59 54 52 52 57 64 63 62 66 73 72 69 77 88 96 105 108 114 119 129 144 146 146 153 165 172
62 57 57 65 71 69 68 66 67 65 64 62 59 56 53 52 54 55 57 58 59 61 61 59 55 55 56 58 62 62 64 67 71 67 68 73 81 87 95 107 109 126 139 140 140 151 161 164 181
61 59 63 69 72 72 72 69 67 65 63 59 57 56 54 56 57 57 58 60 60 61 61 60 59 58 59 61 61 63 65 67 69 65 66 65 67 72 79 95 83 94 115 153 175 192 191 216 229
79 60 67 73 73 73 69 67 68 66 63 58 56 56 56 56 56 57 59 60 60 62 62 61 59 59 58 60 60 62 62 62 61 60 61 59 59 60 69 85 82 84 90 91 129 43 254 254 254
98 80 74 74 73 73 70 65 64 64 62 58 55 54 53 54 56 58 61 62 61 63 63 60 58 57 56 58 61 61 57 58 58 56 55 54 52 49 54 79 82 71 58 28 359 3 293 273 265
133 93 80 73 72 74 71 67 61 61 63 60 57 57 55 54 54 55 57 60 61 62 62 59 56 54 56 59 61 62 59 55 52 53 53 48 49 51 55 68 69 62 56 33 359 340 320 290 276
176 135 98 76 75 77 71 68 63 59 58 58 57 56 53 52 53 53 54 57 59 61 62 60 56 55 54 57 58 56 54 50 49 47 45 44 45 42 42 34 33 40 32 22 12 327 313 304 299
197 164 132 109 93 87 75 70 65 62 58 55 55 52 48 50 53 52 53 56 58 60 60 58 56 54 52 53 54 52 51 49 46 43 40 39 38 36 30 29 17 5 5 359 344 329 320 305 304
210 186 168 150 119 98 83 78 70 66 60 57 55 52 49 49 52 52 51 54 56 54 57 57 56 55 57 53 51 49 49 45 43 39 34 33 34 36 33 35 21 4 359 347 333 321 319 313 302
215 213 201 177 158 131 102 90 83 70 66 60 53 48 47 47 49 50 50 51 51 49 52 55 54 51 54 55 51 47 46 43 41 40 37 37 36 31 28 31 19 8 357 347 340 329 323 319 314
221 220 216 208 203 194 165 123 91 86 77 60 51 46 42 49 51 49 47 45 51 52 52 53 53 54 53 51 48 48 47 42 41 43 41 37 33 27 27 22 12 4 356 347 337 327 323 322 320
225 220 220 224 227 229 223 203 132 107 81 57 47 40 42 53 52 48 47 45 50 51 52 51 51 50 50 47 46 47 42 37 32 32 31 31 29 23 21 19 11 3 355 349 343 332 326 322 321
228 226 222 227 235 239 243 236 216 203 57 49 36 32 37 48 50 44 44 45 49 48 49 49 47 46 47 47 44 40 41 40 34 30 27 25 19 15 12 9 9 4 358 353 342 333 323 320 321
231 230 229 231 238 240 240 245 232 234 297 352 9 13 22 31 39 38 42 44 45 42 40 42 42 40 43 43 42 39 37 33 32 30 25 19 15 12 9 4 1 4 3 354 340 330 326 323 322
230 230 232 232 238 242 241 244 234 240 282 302 328 345 1 9 20 26 32 34 31 26 27 31 32 32 35 33 34 36 32 25 22 20 17 14 14 14 10 6 4 1 359 354 347 339 329 327 322
229 230 232 232 237 243 242 243 233 238 265 279 297 300 311 317 328 353 2 6 11 11 14 16 15 23 26 30 30 28 22 16 11 7 5 3 3 2 358 355 353 349 347 344 341 338 334 328 323
229 232 236 238 240 243 243 246 240 241 252 265 280 280 281 289 295 315 339 346 345 353 3 4 7 9 12 18 23 20 11 4 360 355 353 352 350 349 346 345 343 339 338 338 336 334 331 327 324
228 231 236 241 244 245 245 246 242 244 254 262 271 274 276 282 288 295 313 324 327 329 328 338 350 1 4 1 0 357 352 348 343 341 339 341 343 342 339 337 335 335 334 333 333 331 327 325 323
229 231 234 239 243 246 247 249 251 250 254 260 266 270 272 276 278 281 292 303 309 315 309 317 327 339 347 344 340 336 334 340 340 337 335 333 332 330 330 330 330 330 330 331 331 328 326 325 323
227 229 234 239 243 247 249 250 254 255 255 259 265 270 269 271 277 277 280 287 288 293 294 292 300 311 320 327 333 328 322 323 328 330 331 329 325 323 321 322 324 327 328 327 326 325 323 323 323
228 230 233 238 242 246 251 252 254 257 258 260 264 266 265 265 269 272 273 278 281 284 283 282 286 295 302 308 313 320 322 323 323 324 323 323 324 323 320 319 321 322 323 323 322 321 320 320 320